KC8SWY-15 Weather Reports


time (UTC)temp
F
wind
direction
speed
knots
gust
knots
rain 1hr
in
rain 24hr
in
rain mn
in
humidity
%
barometer
mb
20260507191919 54 268 5.2 10.4 0.00 0.00 0.00 42 1013.8
20260507191419 53 231 4.3 10.4 0.00 0.00 0.00 44 1013.7
20260507190919 53 294 5.2 13.0 0.00 0.00 0.00 42 1013.8
20260507190419 53 299 7.0 11.3 0.00 0.00 0.00 42 1013.9
20260507185919 53 279 6.1 13.9 0.00 0.00 0.00 42 1013.9
20260507185419 53 304 6.1 13.0 0.00 0.00 0.00 42 1013.9
20260507184919 53 286 7.0 12.2 0.00 0.00 0.00 43 1013.9
20260507184419 53 282 6.1 13.0 0.00 0.00 0.00 43 1014.1
20260507183919 52 309 5.2 11.3 0.00 0.00 0.00 42 1014.1
20260507183419 52 259 5.2 10.4 0.00 0.00 0.00 42 1014.2
20260507182919 52 253 5.2 11.3 0.00 0.00 0.00 43 1014.1
20260507182419 52 251 5.2 11.3 0.00 0.00 0.00 45 1014.3
20260507181919 52 289 4.3 13.9 0.00 0.00 0.00 47 1014.3
20260507181419 52 289 4.3 10.4 0.00 0.00 0.00 44 1014.4
20260507180919 52 239 4.3 11.3 0.00 0.00 0.00 47 1014.3
20260507180419 52 344 2.6 9.6 0.00 0.00 0.00 45 1014.2
20260507175919 52 186 2.6 7.8 0.00 0.00 0.00 47 1014.3
20260507175419 51 248 3.5 12.2 0.00 0.00 0.00 46 1014.3
20260507174919 51 347 4.3 9.6 0.00 0.00 0.00 46 1014.3
20260507174419 51 324 5.2 9.6 0.00 0.00 0.00 47 1014.4
20260507173919 51 295 4.3 11.3 0.00 0.00 0.00 44 1014.4
20260507173419 51 14 2.6 12.2 0.00 0.00 0.00 47 1014.6
20260507172919 50 277 1.7 8.7 0.00 0.00 0.00 48 1014.6
20260507172419 50 258 2.6 5.2 0.00 0.00 0.00 47 1014.8
20260507171919 50 298 3.5 13.0 0.00 0.00 0.00 47 1014.9
20260507171419 49 296 1.7 12.2 0.00 0.00 0.00 49 1015.0
20260507170919 49 0 1.7 8.7 0.00 0.00 0.00 47 1015.1
20260507170419 49 320 3.5 9.6 0.00 0.00 0.00 46 1015.3
20260507165919 49 347 5.2 11.3 0.00 0.00 0.00 47 1015.5
20260507165419 50 312 5.2 11.3 0.00 0.00 0.00 47 1015.6
20260507164919 49 277 4.3 14.8 0.00 0.00 0.00 48 1015.5
20260507164419 49 240 4.3 8.7 0.00 0.00 0.00 47 1015.7
20260507163919 48 300 6.1 9.6 0.00 0.00 0.00 47 1015.7
20260507163419 49 281 6.1 12.2 0.00 0.00 0.00 46 1015.8
20260507162919 49 332 3.5 12.2 0.00 0.00 0.00 47 1015.9
20260507162419 48 309 5.2 8.7 0.00 0.00 0.00 50 1015.8
20260507161919 48 349 7.0 11.3 0.00 0.00 0.00 48 1015.9
20260507161419 48 321 6.1 13.0 0.00 0.00 0.00 48 1015.9
20260507160919 48 271 6.1 13.0 0.00 0.00 0.00 49 1015.8
20260507160419 48 268 6.1 13.9 0.00 0.00 0.00 49 1016.0
20260507155919 48 301 6.1 10.4 0.00 0.00 0.00 49 1016.0
20260507155419 48 293 6.1 13.0 0.00 0.00 0.00 49 1016.0
20260507154920 48 331 5.2 12.2 0.00 0.00 0.00 51 1016.0
20260507154419 48 292 6.1 11.3 0.00 0.00 0.00 50 1016.0
20260507153920 48 276 7.0 12.2 0.00 0.00 0.00 50 1015.8
20260507153420 47 292 5.2 14.8 0.00 0.00 0.00 50 1015.9
20260507152920 48 323 5.2 8.7 0.00 0.00 0.00 50 1015.7
20260507152420 48 320 6.1 13.9 0.00 0.00 0.00 49 1015.7
20260507151920 48 355 7.0 11.3 0.00 0.00 0.00 51 1015.6
20260507151420 48 294 7.0 13.9 0.00 0.00 0.00 49 1015.6
20260507150920 48 271 6.1 10.4 0.00 0.00 0.00 49 1015.5
20260507150420 48 286 6.1 12.2 0.00 0.00 0.00 51 1015.6
20260507145920 47 317 6.1 11.3 0.00 0.00 0.00 49 1015.4
20260507145420 47 10 7.0 11.3 0.00 0.00 0.00 50 1015.5
20260507144920 47 309 7.0 13.0 0.00 0.00 0.00 51 1015.6
20260507144420 47 286 6.1 13.9 0.00 0.00 0.00 50 1015.5
20260507143920 47 5 7.0 11.3 0.00 0.00 0.00 52 1015.5
20260507143420 47 286 7.0 13.0 0.00 0.00 0.00 51 1015.5
20260507142920 46 348 5.2 12.2 0.00 0.00 0.00 53 1015.5
20260507142420 46 288 6.1 10.4 0.00 0.00 0.00 55 1015.6
20260507141920 46 313 7.0 13.0 0.00 0.00 0.00 54 1015.6
20260507141420 46 240 5.2 14.8 0.00 0.00 0.00 55 1015.6
20260507140920 46 306 6.1 8.7 0.00 0.00 0.00 57 1015.6
20260507140420 46 275 6.1 13.0 0.00 0.00 0.00 55 1015.7
20260507135920 46 315 6.1 9.6 0.00 0.00 0.00 58 1015.7
20260507135420 45 276 7.0 14.8 0.00 0.00 0.00 55 1015.8
20260507134920 46 284 6.1 15.6 0.00 0.00 0.00 55 1015.7
20260507134420 46 269 5.2 10.4 0.00 0.00 0.00 56 1015.7
20260507133920 45 269 3.5 10.4 0.00 0.00 0.00 57 1015.7
20260507133420 45 272 4.3 8.7 0.00 0.00 0.00 59 1015.7
20260507132920 45 331 4.3 10.4 0.00 0.00 0.00 57 1015.8
20260507132420 45 329 3.5 7.8 0.00 0.00 0.00 61 1015.7
20260507131920 44 295 3.5 9.6 0.00 0.00 0.00 60 1015.6
20260507131420 44 313 4.3 8.7 0.00 0.00 0.00 62 1015.5
20260507130920 44 257 3.5 8.7 0.00 0.00 0.00 63 1015.5
20260507130420 44 311 3.5 6.1 0.00 0.00 0.00 64 1015.4
20260507125920 43 325 5.2 10.4 0.00 0.00 0.00 64 1015.4
20260507125420 43 284 4.3 8.7 0.00 0.00 0.00 64 1015.4
20260507124920 43 295 3.5 8.7 0.00 0.00 0.00 66 1015.4
20260507124420 43 296 3.5 8.7 0.00 0.00 0.00 67 1015.4
20260507123920 42 303 3.5 7.8 0.00 0.00 0.00 69 1015.5
20260507123420 42 250 2.6 9.6 0.00 0.00 0.00 70 1015.5
20260507122920 42 257 2.6 6.1 0.00 0.00 0.00 71 1015.4
20260507122420 42 282 0.9 6.1 0.00 0.00 0.00 73 1015.5
20260507121920 41 298 0.9 3.5 0.00 0.00 0.00 73 1015.4
20260507121420 41 284 0.9 4.3 0.00 0.00 0.00 74 1015.4
20260507120920 41 288 0.9 4.3 0.00 0.00 0.00 77 1015.5
20260507120420 40 296 0.9 5.2 0.00 0.00 0.00 79 1015.4
20260507115920 39 248 0.9 6.1 0.00 0.00 0.00 81 1015.4
20260507115420 38 244 0.0 3.5 0.00 0.00 0.00 85 1015.4
20260507114920 37 273 0.0 1.7 0.00 0.00 0.00 88 1015.4
20260507114420 36 274 0.0 1.7 0.00 0.00 0.00 91 1015.5
20260507113920 35 248 0.0 0.0 0.00 0.00 0.00 91 1015.4
20260507113420 35 248 0.0 0.0 0.00 0.00 0.00 91 1015.3
20260507112920 34 248 0.0 0.0 0.00 0.00 0.00 91 1015.2
20260507112420 34 248 0.0 0.0 0.00 0.00 0.00 91 1015.2
20260507111920 33 248 0.0 0.0 0.00 0.00 0.00 91 1015.2
20260507111420 32 248 0.0 0.0 0.00 0.00 0.00 90 1015.0
20260507110920 32 248 0.0 0.0 0.00 0.00 0.00 90 1014.9
20260507110420 32 248 0.0 0.0 0.00 0.00 0.00 90 1014.9
20260507105920 32 248 0.0 0.0 0.00 0.00 0.00 89 1014.8
20260507105420 32 248 0.0 0.0 0.00 0.00 0.00 89 1014.8
20260507104920 32 248 0.0 0.0 0.00 0.00 0.00 89 1014.8
20260507104420 32 248 0.0 0.0 0.00 0.00 0.00 89 1014.8
20260507103920 32 248 0.0 0.0 0.00 0.00 0.00 88 1014.7
20260507103420 32 248 0.0 0.0 0.00 0.00 0.00 89 1014.7
20260507102921 33 248 0.0 0.0 0.00 0.00 0.00 88 1014.6
20260507102421 33 248 0.0 0.0 0.00 0.00 0.00 88 1014.6
20260507101921 33 248 0.0 0.0 0.00 0.00 0.00 88 1014.6
20260507101421 33 248 0.0 0.0 0.00 0.00 0.00 88 1014.7
20260507100921 33 248 0.0 0.0 0.00 0.00 0.00 87 1014.7
20260507100421 33 248 0.0 0.0 0.00 0.00 0.00 87 1014.7
20260507095921 33 248 0.0 0.0 0.00 0.00 0.00 87 1014.7
20260507095421 34 248 0.0 0.0 0.00 0.00 0.00 86 1014.6
20260507094921 34 248 0.0 0.0 0.00 0.00 0.00 86 1014.6
20260507094421 34 248 0.0 0.0 0.00 0.00 0.00 85 1014.6
20260507093921 34 248 0.0 0.0 0.00 0.00 0.00 85 1014.5
20260507093421 35 248 0.0 0.0 0.00 0.00 0.00 84 1014.5
20260507092921 35 248 0.0 0.0 0.00 0.00 0.00 84 1014.6
20260507092421 35 248 0.0 0.0 0.00 0.00 0.00 84 1014.6
20260507091921 35 248 0.0 0.0 0.00 0.00 0.00 84 1014.6
20260507091421 35 248 0.0 0.0 0.00 0.00 0.00 84 1014.7
20260507090921 35 248 0.0 0.0 0.00 0.00 0.00 84 1014.7
20260507090421 36 248 0.0 0.0 0.00 0.00 0.00 84 1014.7
20260507085921 36 248 0.0 0.0 0.00 0.00 0.00 83 1014.8
20260507085421 36 248 0.0 0.0 0.00 0.00 0.00 83 1014.7
20260507084921 36 248 0.0 0.0 0.00 0.00 0.00 81 1014.7
20260507084421 37 248 0.0 0.0 0.00 0.00 0.00 81 1014.8
20260507083921 37 248 0.0 0.0 0.00 0.00 0.00 80 1014.7
20260507083421 38 248 0.0 0.0 0.00 0.00 0.00 79 1014.8
20260507082921 38 248 0.0 0.0 0.00 0.00 0.00 77 1014.7
20260507082421 39 326 0.0 0.0 0.00 0.00 0.00 74 1014.7
20260507081921 40 326 0.0 0.0 0.00 0.00 0.00 72 1014.7
20260507081421 40 326 0.0 0.0 0.00 0.00 0.00 72 1014.7
20260507080921 40 326 0.0 0.0 0.00 0.00 0.00 72 1014.7
20260507080421 41 326 0.0 0.0 0.00 0.00 0.00 71 1014.7
20260507075921 41 326 0.0 0.0 0.00 0.00 0.00 71 1014.8
20260507075421 41 326 0.0 0.0 0.00 0.00 0.00 71 1014.8
20260507074921 41 326 0.0 0.0 0.00 0.00 0.00 71 1014.7
20260507074421 41 327 0.0 0.0 0.00 0.00 0.00 71 1014.7
20260507073921 42 326 0.0 0.0 0.00 0.00 0.00 70 1014.7
20260507073421 42 300 0.9 0.0 0.00 0.00 0.00 70 1014.7
20260507072921 42 320 0.9 3.5 0.00 0.00 0.00 70 1014.7
20260507072421 42 327 0.0 0.9 0.00 0.00 0.00 70 1014.7
20260507071921 42 318 0.0 0.0 0.00 0.00 0.00 70 1014.7
20260507071421 42 329 0.0 0.0 0.00 0.00 0.00 70 1014.6
20260507070921 43 307 0.0 0.0 0.00 0.00 0.00 70 1014.7
20260507070421 43 304 0.0 0.0 0.00 0.00 0.00 70 1014.7
20260507065921 43 316 0.9 0.0 0.00 0.00 0.00 70 1014.6
20260507065421 43 308 0.9 5.2 0.00 0.00 0.00 70 1014.6
20260507064921 43 304 0.9 1.7 0.00 0.00 0.00 70 1014.6
20260507064421 43 331 0.9 5.2 0.00 0.00 0.00 70 1014.6
20260507063921 43 317 0.0 0.9 0.00 0.00 0.00 70 1014.6
20260507063421 43 298 0.9 2.6 0.00 0.00 0.00 70 1014.7
20260507062921 43 277 0.9 4.3 0.00 0.00 0.00 71 1014.7
20260507062421 43 317 0.0 4.3 0.00 0.00 0.00 71 1014.6
20260507061921 43 308 0.9 1.7 0.00 0.00 0.00 71 1014.6
20260507061421 44 281 1.7 4.3 0.00 0.00 0.00 71 1014.6
20260507060921 44 281 1.7 8.7 0.00 0.00 0.00 70 1014.6
20260507060422 43 292 0.9 4.3 0.00 0.00 0.00 71 1014.6
20260507055921 43 308 0.9 2.6 0.00 0.00 0.00 72 1014.6
20260507055421 43 265 0.0 2.6 0.00 0.00 0.00 73 1014.6
20260507054921 43 286 0.0 2.6 0.00 0.00 0.00 73 1014.6
20260507054421 43 342 0.0 0.0 0.00 0.00 0.00 74 1014.6
20260507053921 43 342 0.0 0.0 0.00 0.00 0.00 74 1014.6
20260507053421 43 342 0.0 0.9 0.00 0.00 0.00 74 1014.7
20260507052921 42 342 0.0 0.9 0.00 0.00 0.00 74 1014.7
20260507052422 42 342 0.0 0.9 0.00 0.00 0.00 75 1014.6
20260507051922 42 342 0.0 0.9 0.00 0.00 0.00 76 1014.7
20260507051422 42 342 0.0 0.0 0.00 0.00 0.00 78 1014.7
20260507050922 42 342 0.0 0.0 0.00 0.00 0.00 78 1014.6
20260507050422 42 342 0.0 0.0 0.00 0.00 0.00 78 1014.6
20260507045922 42 342 0.0 0.0 0.00 0.00 0.00 78 1014.7
20260507045422 42 342 0.0 0.0 0.00 0.00 0.00 78 1014.6
20260507044922 41 342 0.0 0.0 0.00 0.00 0.00 79 1014.6
20260507044422 41 342 0.0 0.0 0.00 0.00 0.00 78 1014.6
20260507043922 41 342 0.0 0.0 0.00 0.00 0.00 78 1014.7
20260507043422 42 342 0.0 0.0 0.00 0.00 0.00 78 1014.6
20260507042922 42 342 0.0 0.0 0.00 0.00 0.00 78 1014.5
20260507042422 42 342 0.0 0.0 0.00 0.00 0.00 75 1014.6
20260507041922 42 342 0.0 0.0 0.00 0.00 0.00 74 1014.6
20260507041422 42 342 0.0 0.0 0.00 0.00 0.00 74 1014.5
20260507040922 42 342 0.0 0.0 0.00 0.00 0.00 73 1014.6
20260507040422 42 342 0.0 0.0 0.00 0.00 0.00 73 1014.6
20260507035922 42 342 0.0 0.0 0.00 0.00 0.00 73 1014.6
20260507035422 43 342 0.0 0.0 0.00 0.00 0.00 76 1014.6
20260507034922 43 342 0.0 0.0 0.00 0.00 0.00 74 1014.7
20260507034422 44 342 0.0 0.0 0.00 0.00 0.00 74 1014.7
20260507033922 44 342 0.0 0.0 0.00 0.00 0.00 72 1014.6
20260507033422 44 342 0.0 0.0 0.00 0.00 0.00 70 1014.6
20260507032922 44 342 0.0 0.0 0.00 0.00 0.00 70 1014.7
20260507032422 45 342 0.0 0.0 0.00 0.00 0.00 67 1014.6
20260507031922 45 342 0.0 0.0 0.00 0.00 0.00 71 1014.6
20260507031422 45 342 0.0 0.0 0.00 0.00 0.00 68 1014.6
20260507030922 45 342 0.0 0.0 0.00 0.00 0.00 67 1014.6
20260507030422 46 342 0.0 0.0 0.00 0.00 0.00 68 1014.5
20260507025922 46 342 0.0 0.0 0.00 0.00 0.00 70 1014.6
20260507025422 46 342 0.0 0.0 0.00 0.00 0.00 69 1014.7
20260507024922 46 342 0.0 0.0 0.00 0.00 0.00 68 1014.7
20260507024422 46 342 0.0 0.0 0.00 0.00 0.00 67 1014.7
20260507023922 46 342 0.0 0.0 0.00 0.00 0.00 68 1014.7
20260507023422 46 342 0.0 0.0 0.00 0.00 0.00 66 1014.7
20260507022922 47 342 0.0 0.0 0.00 0.00 0.00 65 1014.7
20260507022422 47 342 0.0 0.0 0.00 0.00 0.00 64 1014.6
20260507021922 47 342 0.0 0.0 0.00 0.00 0.00 63 1014.5
20260507021422 47 342 0.0 0.0 0.00 0.00 0.00 62 1014.5
20260507020922 47 342 0.0 0.0 0.00 0.00 0.00 64 1014.4
20260507020422 47 342 0.0 0.0 0.00 0.00 0.00 56 1014.3
20260507015922 47 342 0.0 0.0 0.00 0.00 0.00 54 1014.3
20260507015422 48 342 0.0 0.0 0.00 0.00 0.00 55 1014.2
20260507014922 48 342 0.0 0.0 0.00 0.00 0.00 54 1014.2
20260507014422 48 342 0.0 0.0 0.00 0.00 0.00 54 1014.2
20260507013922 48 342 0.0 0.0 0.00 0.00 0.00 50 1014.1
20260507013422 49 342 0.0 0.0 0.00 0.00 0.00 50 1014.1
20260507012922 49 342 0.0 0.0 0.00 0.00 0.00 49 1014.1
20260507012422 49 342 0.0 0.0 0.00 0.00 0.00 50 1014.1
20260507011922 49 342 0.0 0.0 0.00 0.00 0.00 50 1014.0
20260507011422 49 342 0.0 0.0 0.00 0.00 0.00 50 1014.1
20260507010922 49 342 0.0 0.0 0.00 0.00 0.00 49 1014.0
20260507010422 50 342 0.0 0.0 0.00 0.00 0.00 48 1014.0
20260507005922 50 342 0.0 0.0 0.00 0.00 0.00 49 1013.9
20260507005422 50 342 0.0 0.0 0.00 0.00 0.00 49 1014.0
20260507004922 50 342 0.0 0.0 0.00 0.00 0.00 49 1013.9
20260507004422 50 342 0.0 0.0 0.00 0.00 0.00 46 1013.9
20260507003922 51 342 0.0 0.0 0.00 0.00 0.00 45 1013.9
20260507003422 51 342 0.0 0.9 0.00 0.00 0.00 43 1013.9
20260507002922 51 317 0.0 0.0 0.00 0.00 0.00 44 1013.9
20260507002422 51 306 0.0 0.0 0.00 0.00 0.00 43 1013.9
20260507001922 51 306 0.0 0.0 0.00 0.00 0.00 43 1013.9
20260507001422 51 303 0.0 0.0 0.00 0.00 0.00 42 1013.7
20260507000923 51 306 0.0 0.0 0.00 0.00 0.00 42 1013.7
20260507000423 51 272 0.0 1.7 0.00 0.00 0.00 41 1013.7
20260506235923 51 275 0.0 3.5 0.00 0.00 0.00 40 1013.8
20260506235423 51 286 0.0 0.0 0.00 0.00 0.00 42 1013.8
20260506234923 52 289 0.9 4.3 0.00 0.00 0.00 40 1013.8
20260506234423 52 275 0.9 2.6 0.00 0.00 0.00 40 1013.8
20260506233923 52 282 2.6 5.2 0.00 0.00 0.00 39 1013.7
20260506233423 52 327 2.6 8.7 0.00 0.00 0.00 40 1013.7
20260506232923 52 311 2.6 8.7 0.00 0.00 0.00 39 1013.8
20260506232423 52 277 3.5 8.7 0.00 0.00 0.00 40 1013.7
20260506231923 52 294 3.5 11.3 0.00 0.00 0.00 39 1013.7
20260506231423 52 267 3.5 8.7 0.00 0.00 0.00 40 1013.8
20260506230923 52 283 3.5 10.4 0.00 0.00 0.00 39 1013.8
20260506230423 53 319 3.5 12.2 0.00 0.00 0.00 38 1013.7
20260506225923 53 331 4.3 8.7 0.00 0.00 0.00 38 1013.8
20260506225423 53 293 5.2 12.2 0.00 0.00 0.00 37 1013.8
20260506224923 53 307 5.2 9.6 0.00 0.00 0.00 40 1013.8
20260506224423 53 322 4.3 11.3 0.00 0.00 0.00 38 1013.7
20260506223923 54 321 4.3 10.4 0.00 0.00 0.00 39 1013.7
20260506223423 53 321 2.6 11.3 0.00 0.00 0.00 39 1013.7
20260506222923 53 319 2.6 7.8 0.00 0.00 0.00 39 1013.7
20260506222423 53 275 4.3 11.3 0.00 0.00 0.00 39 1013.8
20260506221923 53 317 4.3 9.6 0.00 0.00 0.00 38 1013.8
20260506221423 53 313 4.3 9.6 0.00 0.00 0.00 38 1013.7
20260506220923 53 300 2.6 12.2 0.00 0.00 0.00 38 1013.7
20260506220423 53 300 2.6 7.8 0.00 0.00 0.00 39 1013.7
20260506215923 53 270 3.5 10.4 0.00 0.00 0.00 38 1013.7
20260506215423 53 305 5.2 10.4 0.00 0.00 0.00 37 1013.7
20260506214923 53 290 6.1 13.9 0.00 0.00 0.00 39 1013.7
20260506214423 54 306 5.2 13.9 0.00 0.00 0.00 38 1013.7
20260506213923 54 286 4.3 11.3 0.00 0.00 0.00 37 1013.7
20260506213423 54 351 5.2 11.3 0.00 0.00 0.00 37 1013.7
20260506212923 54 275 7.0 11.3 0.00 0.00 0.00 38 1013.7
20260506212423 54 5 7.8 12.2 0.00 0.00 0.00 37 1013.7
20260506211923 54 312 6.1 12.2 0.00 0.00 0.00 37 1013.8
20260506211423 54 292 5.2 12.2 0.00 0.00 0.00 37 1013.7
20260506210923 53 322 6.1 11.3 0.00 0.00 0.00 37 1013.8
20260506210423 53 304 7.0 15.6 0.00 0.00 0.00 38 1013.9
20260506205923 53 252 7.0 13.0 0.00 0.00 0.00 37 1013.9
20260506205423 53 272 5.2 12.2 0.00 0.00 0.00 37 1013.9
20260506204923 53 286 7.8 13.0 0.00 0.00 0.00 38 1014.0
20260506204423 53 282 7.0 14.8 0.00 0.00 0.00 37 1014.1
20260506203923 53 304 4.3 8.7 0.00 0.00 0.00 38 1014.0
20260506203423 53 320 6.1 12.2 0.00 0.00 0.00 38 1014.0
20260506202923 53 329 6.1 14.8 0.00 0.00 0.00 39 1014.1
20260506202423 53 287 5.2 11.3 0.00 0.00 0.00 37 1014.1
20260506201923 53 298 6.1 11.3 0.00 0.00 0.00 37 1014.1
20260506201423 54 346 7.0 13.0 0.00 0.00 0.00 37 1014.2
20260506200923 54 341 7.0 13.0 0.00 0.00 0.00 38 1014.3
20260506200423 53 308 7.0 13.9 0.00 0.00 0.00 38 1014.4
20260506195923 54 305 5.2 13.9 0.00 0.00 0.00 38 1014.5
20260506195423 54 269 5.2 10.4 0.00 0.00 0.00 39 1014.3
20260506194923 53 5 6.1 10.4 0.00 0.00 0.00 39 1014.4
20260506194423 53 271 6.1 13.0 0.00 0.00 0.00 37 1014.4
20260506193923 54 288 7.0 13.9 0.00 0.00 0.00 37 1014.4
20260506193423 53 348 7.8 19.1 0.00 0.00 0.00 37 1014.4
20260506192923 53 306 7.0 14.8 0.00 0.00 0.00 37 1014.4
20260506192423 53 244 6.1 13.0 0.00 0.00 0.00 35 1014.4